User: anonymous   Login
Location: Steinbach
(49.5170°N, 96.6830°W)
Time: 02:45:28
(UTC-05:00)
Language:

NOSS 3-4 (A) - Orbit

View from above orbital plane
View from above orbital plane
View from above satellite
View from above satellite

Ground track
Ground track

The orbit data is extracted from the following two-line orbital elements,

1 31701U 07027A   15246.08191443 0.00000000  00000-0  00000-0 0    09
2 31701  63.4020 307.9406 0138000  31.3196 328.6804 13.40687047    04
Epoch (UTC): 03 September 2015 01:57:57
Eccentricity: 0.0138000
inclination: 63.4020°
perigee height: 1003 km
apogee height: 1210 km
right ascension of ascending node: 307.9406°
argument of perigee: 31.3196°
revolutions per day: 13.40687047
mean anomaly at epoch: 328.6804°
orbit number at epoch: 0

The dashed part of the orbit path shows where the satellite is in the earth's shadow,  

DLR